Flag for U.S.A. Weather past 2 weeks in Moreno Valley, California, U.S.A.

Now
81 °F

Sunny.


Feels Like: 79 °F
Forecast: 47 / 81 °F
Wind: 17 mph from Northwest

Location: Riverside / March Air Force Base

Current Time: Apr 18, 2015 at 5:46:37 PM

Latest Report: Apr 18, 2015 at 4:58 PM


Visibility: 10 mi

Pressure: 29.90 "Hg

Humidity: 16%

Dew point: 30 °F

Location of Moreno ValleyLocation

Historic Weather in Moreno Valley — Graph

°F

Moreno Valley temperature yesterday

Maximum temperature yesterday: 83 °F (at 3:58 PM)
Minimum temperature yesterday: 42 °F (at 3:58 AM)
Average temperature yesterday: 63 °F

Past Weeks' High & Low Weather Summary

 TemperatureHumidityPressure
High83 °F (Apr 18, 2:58 PM)100% (Apr 5, 4:58 AM)30.10 "Hg (Apr 5, 4:58 AM)
Low36 °F (Apr 7, 4:58 AM)6% (Apr 3, 4:58 PM)29.79 "Hg (Apr 5, 4:58 PM)
Average60 °F49%29.96 "Hg
* Reported Apr 3 3:58 PM — Apr 18 3:58 PM, Moreno Valley, Weather by CustomWeather, © 2015

Note: Actual official high and low records may vary slightly from our data, if they occured in-between our weather recording intervals... More about our weather records

Advertising

Moreno Valley weather history for previous 24 hours

 ConditionsComfort  
Time TempWeatherWind HumidityBarometerVisibility
3:58 PM
Sat, Apr 18
82 °FSunny.14 mph15%29.90 "Hg10 mi
2:58 PM83 °FSunny.13 mph13%29.92 "Hg10 mi
1:58 PM82 °FSunny.13 mph12%29.93 "Hg10 mi
12:58 PM81 °FSunny.9 mph12%29.96 "Hg10 mi
11:58 AM79 °FSunny.5 mph12%29.97 "Hg10 mi
10:58 AM74 °FSunny.2 mph13%30.01 "Hg10 mi
9:58 AM70 °FSunny.5 mph16%30.01 "Hg10 mi
8:58 AM64 °FSunny.3 mph22%30.01 "Hg10 mi
7:58 AM56 °FSunny.No wind30%30.02 "Hg10 mi
6:58 AM45 °FClear.No wind40%30.01 "Hg10 mi
5:58 AM43 °FClear.No wind41%30.00 "Hg10 mi
4:58 AM42 °FClear.No wind40%29.99 "Hg10 mi
3:58 AM46 °FClear.No wind40%29.99 "Hg10 mi
2:58 AM47 °FClear.No wind40%30.00 "Hg10 mi
1:58 AM48 °FClear.No wind39%30.01 "Hg10 mi
12:58 AM48 °FClear.No wind34%30.02 "Hg10 mi
11:58 PM
Fri, Apr 17
54 °FClear.No wind33%30.02 "Hg10 mi
10:58 PM54 °FClear.3 mph31%30.02 "Hg10 mi
9:58 PM60 °FClear.No wind25%30.01 "Hg10 mi
8:58 PM64 °FClear.8 mph21%30.00 "Hg10 mi
7:58 PM68 °FSunny.9 mph17%29.98 "Hg10 mi
6:58 PM72 °FSunny.14 mph16%29.96 "Hg10 mi
5:58 PM77 °FSunny.18 mph14%29.93 "Hg10 mi
Weather by CustomWeather, © 2015

See weather overviewHow to use our weather pages